Regional Weather Roundup
Issued by NWS

Home | Current Version | Previous Version | Text Only | Print | Product List | Glossary Off
Versions: 1 2 3 4 5 6 7 8 9 10 11 12 13 14 15 16 17 18 19 20 21 22 23 24 25 26 27 28 29 30 31 32 33 34 35 36 37 38 39 40 41 42 43 44 45 46 47 48 49 50

000
ASUS43 KTOP 231008
RWRKS

WEATHER ROUNDUP FOR KANSAS
NATIONAL WEATHER SERVICE GOODLAND KS
500 AM CDT TUE SEP 23 2014

NOTE:  "FAIR" INDICATES FEW OR NO CLOUDS BELOW 12,000 FEET WITH NO
SIGNIFICANT WEATHER AND/OR OBSTRUCTIONS TO VISIBILITY.

KSZ001>006-013>018-027>032-041>047-231100-
NORTHWEST KANSAS

CITY           SKY/WX    TMP DP  RH WIND       PRES   REMARKS
GOODLAND       PTCLDY    56  55  97 S10       30.06S
HILL CITY      CLOUDY    58  56  93 S12       30.06R
RUSSELL        HVY RAIN  59  54  83 S18G26    30.15F
$$

KSZ061>065-074>080-084>089-231100-
SOUTHWEST KANSAS

CITY           SKY/WX    TMP DP  RH WIND       PRES   REMARKS
DODGE CITY     CLOUDY    62  45  53 S16       30.12R
ELKHART          N/A     63  57  81 S13         N/A
GARDEN CITY    CLOUDY    63  51  65 S10       30.09R
GREAT BEND     CLOUDY    57  52  82 N13       30.19R
LIBERAL        PTCLDY    64  52  63 S14       30.12F
PRATT          LGT RAIN  59  48  67 S12       30.16R
$$

KSZ066>073-081>083-090>101-231100-
SOUTHEAST KANSAS

CITY           SKY/WX    TMP DP  RH WIND       PRES   REMARKS
CHANUTE        MOCLDY    56  53  90 SE7       30.20S
COFFEYVILLE    MOCLDY    54  52  93 CALM      30.19F
HUTCHINSON     MOCLDY    62  50  64 S13       30.16R
MEDICINE LODGE   N/A     61  49  64 SE6       30.15S
NEWTON         MOCLDY    57  46  67 S9        30.18S
PARSONS        MOCLDY    58  54  86 E5        30.21S
WICHITA INTL   MOCLDY    58  51  78 S9        30.16F
WICHITA JABRA  PTCLDY    58  51  78 SE8       30.16F
WICHITA MCCONL PTCLDY    58  53  83 SE10      30.16F
WINFIELD       CLEAR     56  52  86 SE5       30.19S
$$

KSZ007>012-019>026-033>040-048>060-102>105-231100-
NORTHEAST KANSAS

CITY           SKY/WX    TMP DP  RH WIND       PRES   REMARKS
CONCORDIA      RAIN      59  55  87 S6        30.18R FOG
EMPORIA        PTCLDY    56  52  86 S9        30.19S
LAWRENCE       MOCLDY    53  51  93 E7        30.21R
MANHATTAN      CLOUDY    61  53  75 CALM      30.17R
MARYSVILLE     CLOUDY    59  52  77 S7        30.17R
OLATHE IND     PTCLDY    55  50  83 SE6       30.22R
OLATHE EXE     PTCLDY    55  50  83 CALM      30.22R
SALINA         CLOUDY    63  52  67 S8        30.17R
TOPEKA BILLARD MOCLDY    57  52  83 E3        30.20R
TOPEKA FORBES  MOCLDY    55  51  86 SE3       30.19S
$$


USA.gov is the U.S. government's official web portal to all federal, state and local government web resources and services.